Welcome to Northern Hawkes Bay. New Zealand.
PWS Header
      nz Flag



Hit Counter


W3C Valid W3C Valid logo


    Wairoa

Select any of the Stations below to visit their websites.










Historic Data from Weather Underground
Select the location of interest below. Wairoa is the default. Please have patience, this Data is slow to load in.
Northern Hawkes Bay Historical Data
Daily Summary for March 4, 2017 Units:  English    Metric   Both
« Previous Day
Next Day »
Daily Weekly Monthly Yearly Custom
  High: Low: Average:
Temperature: 87.1 °F 56.3 °F 70.3 °F
Dew Point: 62.6 °F 50.2 °F 55.8 °F
Humidity: 85% 36% 61%
Wind Speed: 7.6mph 0mph 1.9mph
Wind Gust: 13.6mph - -
Wind- - SW
Pressure: 30 in 29.9 in -
Precipitation: 0 in    
Historical Graphs
 
 
Tabular Data for March 4, 2017
Time Temperature Dew Point Pressure Wind Wind Speed Wind Gust Humidity Rainfall Rate (Hourly) solar
00:01 65.5 °F 51.6 °F 30 in NW 5.4 mph 10.7 mph 61% 0 in 0 W/m2
00:06 65.5 °F 51.6 °F 30 in NW 4.5 mph 10.7 mph 61% 0 in 0 W/m2
00:11 65.5 °F 51.6 °F 30 in NW 4.5 mph 11.4 mph 61% 0 in 0 W/m2
00:16 65.3 °F 51.4 °F 30 in NW 6.9 mph 11.4 mph 61% 0 in 0 W/m2
00:21 65.3 °F 51.4 °F 30 in NW 3.8 mph 9.8 mph 61% 0 in 0 W/m2
00:26 65.1 °F 51.4 °F 30 in NW 3.1 mph 9.8 mph 61% 0 in 0 W/m2
00:31 64.9 °F 51.3 °F 30 in NW 6 mph 9.8 mph 61% 0 in 0 W/m2
00:36 64.8 °F 51.4 °F 30 in NW 6 mph 9.2 mph 62% 0 in 0 W/m2
00:41 64.6 °F 51.3 °F 30 in NW 3.8 mph 12.1 mph 62% 0 in 0 W/m2
00:46 64.2 °F 51.4 °F 30 in NW 4.5 mph 12.1 mph 63% 0 in 0 W/m2
00:51 63.9 °F 51.1 °F 30 in NW 3.8 mph 6.9 mph 63% 0 in 0 W/m2
00:56 63.3 °F 50.5 °F 30 in Calm   6 mph 63% 0 in 0 W/m2
01:01 63 °F 50.5 °F 30 in Calm   6 mph 64% 0 in 0 W/m2
01:06 62.6 °F 50.7 °F 30 in Calm   3.8 mph 65% 0 in 0 W/m2
01:11 62.4 °F 50.9 °F 30 in Calm   2.2 mph 66% 0 in 0 W/m2
01:16 62.4 °F 50.9 °F 30 in NNW 3.1 mph 6.9 mph 66% 0 in 0 W/m2
01:21 62.6 °F 50.7 °F 30 in NW 3.1 mph 6.9 mph 65% 0 in 0 W/m2
01:26 62.2 °F 50.7 °F 30 in Calm   6.9 mph 66% 0 in 0 W/m2
01:31 62.1 °F 50.5 °F 30 in NW 2.2 mph 5.4 mph 66% 0 in 0 W/m2
01:36 62.1 °F 50.5 °F 30 in NW 1.6 mph 5.4 mph 66% 0 in 0 W/m2
01:41 61.9 °F 50.7 °F 30 in NW 1.6 mph 5.4 mph 67% 0 in 0 W/m2
01:46 61.7 °F 50.5 °F 30 in Calm   4.5 mph 67% 0 in 0 W/m2
01:51 61.7 °F 50.5 °F 30 in NNW 1.6 mph 4.5 mph 67% 0 in 0 W/m2
01:56 61.9 °F 50.7 °F 30 in NNW 0.7 mph 6 mph 67% 0 in 0 W/m2
02:01 61.9 °F 50.4 °F 30 in NNW 1.6 mph 6 mph 66% 0 in 0 W/m2
02:06 61.9 °F 50.4 °F 30 in NW 3.8 mph 6 mph 66% 0 in 0 W/m2
02:11 61.9 °F 50.4 °F 30 in NNW 2.2 mph 6 mph 66% 0 in 0 W/m2
02:16 61.9 °F 50.4 °F 30 in NNW 0.7 mph 6 mph 66% 0 in 0 W/m2
02:21 61.7 °F 50.2 °F 30 in NNW 0.7 mph 5.4 mph 66% 0 in 0 W/m2
02:26 61.7 °F 50.2 °F 30 in NNW 1.6 mph 5.4 mph 66% 0 in 0 W/m2
02:31 61.5 °F 50.5 °F 30 in North 0.7 mph 5.4 mph 67% 0 in 0 W/m2
02:36 61 °F 50.7 °F 30 in North 2.2 mph 3.8 mph 69% 0 in 0 W/m2
02:41 60.6 °F 50.7 °F 30 in North 1.6 mph 4.5 mph 70% 0 in 0 W/m2
02:46 60.3 °F 50.7 °F 30 in Calm   4.5 mph 71% 0 in 0 W/m2
02:51 60.3 °F 51.3 °F 30 in North 0.7 mph 4.5 mph 72% 0 in 0 W/m2
02:56 60.3 °F 51.3 °F 29.9 in North 3.1 mph 5.4 mph 72% 0 in 0 W/m2
03:01 60.3 °F 51.3 °F 30 in North 2.2 mph 5.4 mph 72% 0 in 0 W/m2
03:06 60.1 °F 51.4 °F 29.9 in North 2.2 mph 5.4 mph 73% 0 in 0 W/m2
03:11 60.1 °F 51.4 °F 29.9 in North 1.6 mph 5.4 mph 73% 0 in 0 W/m2
03:16 60.3 °F 51.6 °F 30 in North 3.1 mph 6 mph 73% 0 in 0 W/m2
03:21 60.1 °F 51.4 °F 29.9 in North 2.2 mph 6 mph 73% 0 in 0 W/m2
03:26 60.1 °F 51.4 °F 29.9 in North 1.6 mph 6 mph 73% 0 in 0 W/m2
03:31 59.9 °F 51.3 °F 29.9 in North 2.2 mph 5.4 mph 73% 0 in 0 W/m2
03:36 59.9 °F 51.3 °F 29.9 in North 0.7 mph 4.5 mph 73% 0 in 0 W/m2
03:41 59.9 °F 51.3 °F 29.9 in North 3.1 mph 4.5 mph 73% 0 in 0 W/m2
03:46 59.9 °F 51.3 °F 29.9 in North 3.1 mph 5.4 mph 73% 0 in 0 W/m2
03:51 59.9 °F 51.3 °F 29.9 in North 0.7 mph 5.4 mph 73% 0 in 0 W/m2
03:56 59.7 °F 51.1 °F 29.9 in North 0.7 mph 3.8 mph 73% 0 in 0 W/m2
04:01 59.7 °F 51.1 °F 29.9 in North 1.6 mph 3.8 mph 73% 0 in 0 W/m2
04:06 59.7 °F 51.1 °F 29.9 in Calm   3.8 mph 73% 0 in 0 W/m2
04:11 59.5 °F 50.9 °F 29.9 in Calm   5.4 mph 73% 0 in 0 W/m2
04:16 59.5 °F 50.9 °F 29.9 in North 1.6 mph 5.4 mph 73% 0 in 0 W/m2
04:21 59.5 °F 50.9 °F 29.9 in North 2.2 mph 5.4 mph 73% 0 in 0 W/m2
04:26 59.7 °F 51.1 °F 29.9 in North 3.8 mph 6 mph 73% 0 in 0 W/m2
04:31 59.7 °F 51.1 °F 29.9 in North 1.6 mph 6 mph 73% 0 in 0 W/m2
04:36 59.5 °F 50.9 °F 29.9 in NNW 3.8 mph 5.4 mph 73% 0 in 0 W/m2
04:41 59.5 °F 50.9 °F 29.9 in NNW 3.8 mph 6 mph 73% 0 in 0 W/m2
04:46 59.5 °F 50.9 °F 29.9 in NNW 0.7 mph 6 mph 73% 0 in 0 W/m2
04:51 59.2 °F 50.9 °F 29.9 in North 3.1 mph 6 mph 74% 0 in 0 W/m2
05:10 59 °F 51.1 °F 29.9 in Calm   6.9 mph 75% 0 in 0 W/m2
05:15 59 °F 51.1 °F 29.9 in Calm   5.4 mph 75% 0 in 0 W/m2
05:20 58.8 °F 51.3 °F 29.9 in North 1.6 mph 5.4 mph 76% 0 in 0 W/m2
05:25 58.6 °F 51.1 °F 29.9 in North 3.1 mph 5.4 mph 76% 0 in 0 W/m2
05:30 58.6 °F 51.1 °F 29.9 in NNW 0.7 mph 6 mph 76% 0 in 0 W/m2
05:35 58.5 °F 51.3 °F 29.9 in North 1.6 mph 6 mph 77% 0 in 0 W/m2
05:40 58.3 °F 51.1 °F 29.9 in NNW 3.8 mph 6 mph 77% 0 in 0 W/m2
05:45 58.1 °F 50.9 °F 29.9 in NNW 2.2 mph 6 mph 77% 0 in 0 W/m2
05:50 58.1 °F 51.3 °F 29.9 in North 3.1 mph 6 mph 78% 0 in 0 W/m2
05:55 57.9 °F 51.1 °F 29.9 in North 3.1 mph 6.9 mph 78% 0 in 0 W/m2
06:00 57.7 °F 51.3 °F 29.9 in NNW 1.6 mph 6.9 mph 79% 0 in 0 W/m2
06:05 57.6 °F 51.1 °F 29.9 in NNW 1.6 mph 6.9 mph 79% 0 in 0 W/m2
06:09 57.4 °F 51.3 °F 29.9 in North 1.6 mph 6 mph 80% 0 in 0 W/m2
06:14 57.2 °F 51.1 °F 29.9 in North 2.2 mph 6 mph 80% 0 in 0 W/m2
06:19 57 °F 51.6 °F 29.9 in North 3.1 mph 7.6 mph 82% 0 in 0 W/m2
06:25 57 °F 51.6 °F 29.9 in NW 2.2 mph 7.6 mph 82% 0 in 0 W/m2
06:30 57 °F 51.6 °F 29.9 in NNW 1.6 mph 6 mph 82% 0 in 0 W/m2
06:35 57 °F 51.6 °F 29.9 in NNW 2.2 mph 6 mph 82% 0 in 0 W/m2
06:40 57 °F 51.6 °F 29.9 in NNW 2.2 mph 6.9 mph 82% 0 in 0 W/m2
06:45 57 °F 51.6 °F 29.9 in NNW 3.1 mph 6.9 mph 82% 0 in 0 W/m2
06:50 56.8 °F 51.4 °F 29.9 in NNW 3.1 mph 6 mph 82% 0 in 0 W/m2
06:55 56.8 °F 51.6 °F 29.9 in NW 0.7 mph 6 mph 83% 0 in 1 W/m2
07:00 56.7 °F 51.6 °F 29.9 in NW 3.1 mph 6 mph 83% 0 in 4 W/m2
07:18 56.3 °F 51.4 °F 29.9 in NW 0.7 mph 4.5 mph 84% 0 in 18 W/m2
07:23 56.5 °F 52 °F 29.9 in NNW 0.7 mph 4.5 mph 85% 0 in 73 W/m2
07:28 57.2 °F 52.3 °F 29.9 in NNW 1.6 mph 4.5 mph 84% 0 in 95 W/m2
07:33 58.1 °F 52.5 °F 29.9 in NW 1.6 mph 3.8 mph 82% 0 in 110 W/m2
07:38 58.5 °F 52.3 °F 29.9 in NW 2.2 mph 6 mph 80% 0 in 117 W/m2
07:43 59 °F 52.2 °F 29.9 in NW 3.1 mph 6.9 mph 78% 0 in 130 W/m2
07:48 59.5 °F 52.3 °F 29.9 in NW 4.5 mph 6.9 mph 77% 0 in 138 W/m2
07:53 59.9 °F 52.3 °F 29.9 in NW 3.8 mph 6.9 mph 76% 0 in 143 W/m2
07:59 60.3 °F 52.7 °F 29.9 in NW 3.1 mph 6.9 mph 76% 0 in 156 W/m2
08:04 60.6 °F 52.7 °F 29.9 in NW 3.1 mph 7.6 mph 75% 0 in 165 W/m2
08:09 60.8 °F 52.5 °F 30 in NW 4.5 mph 7.6 mph 74% 0 in 173 W/m2
08:14 61.3 °F 53.1 °F 29.9 in NW 3.1 mph 6.9 mph 74% 0 in 185 W/m2
08:19 62.1 °F 53.2 °F 30 in NW 3.1 mph 6.9 mph 73% 0 in 189 W/m2
08:24 62.4 °F 53.8 °F 30 in NW 6 mph 8.3 mph 73% 0 in 191 W/m2
08:29 62.2 °F 53.1 °F 30 in NNW 3.8 mph 8.3 mph 72% 0 in 208 W/m2
08:35 62.6 °F 53.1 °F 30 in NNW 5.4 mph 8.3 mph 71% 0 in 217 W/m2
08:40 63.3 °F 53.8 °F 30 in NW 3.8 mph 7.6 mph 71% 0 in 229 W/m2
08:45 64.2 °F 54.7 °F 30 in NW 1.6 mph 7.6 mph 71% 0 in 240 W/m2
08:50 64.6 °F 53.8 °F 30 in NW 3.1 mph 6.9 mph 68% 0 in 252 W/m2
08:55 65.1 °F 54.3 °F 30 in NW 3.1 mph 6.9 mph 68% 0 in 262 W/m2
09:00 66.2 °F 54.9 °F 30 in NNW 0.7 mph 6.9 mph 67% 0 in 275 W/m2
09:05 67.5 °F 55.2 °F 30 in Calm   5.4 mph 65% 0 in 289 W/m2
09:10 67.6 °F 55 °F 30 in NW 4.5 mph 7.6 mph 64% 0 in 299 W/m2
09:15 68 °F 55 °F 30 in NNW 1.6 mph 7.6 mph 63% 0 in 290 W/m2
09:20 69.1 °F 55.9 °F 30 in NNW 2.2 mph 6.9 mph 63% 0 in 323 W/m2
09:25 69.4 °F 55.9 °F 30 in Calm   5.4 mph 62% 0 in 334 W/m2
09:30 70.3 °F 55.8 °F 30 in NNW 2.2 mph 6 mph 60% 0 in 347 W/m2
09:35 70.2 °F 54.7 °F 30 in North 3.8 mph 9.2 mph 58% 0 in 359 W/m2
09:40 70.2 °F 54.7 °F 30 in North 5.4 mph 9.2 mph 58% 0 in 366 W/m2
09:45 70.2 °F 55.2 °F 30 in North 1.6 mph 9.2 mph 59% 0 in 379 W/m2
09:50 70.7 °F 54.7 °F 30 in North 3.8 mph 9.2 mph 57% 0 in 391 W/m2
09:55 71.4 °F 55.4 °F 30 in North 3.8 mph 8.3 mph 57% 0 in 404 W/m2
10:00 71.8 °F 55.2 °F 30 in North 1.6 mph 8.3 mph 56% 0 in 415 W/m2
10:05 72 °F 55.4 °F 30 in NNE 4.5 mph 7.6 mph 56% 0 in 427 W/m2
10:10 72.3 °F 55.2 °F 30 in NNE 1.6 mph 8.3 mph 55% 0 in 440 W/m2
10:15 73 °F 55.4 °F 30 in Calm   8.3 mph 54% 0 in 454 W/m2
10:20 73.8 °F 55.6 °F 30 in North 2.2 mph 6.9 mph 53% 0 in 466 W/m2
10:25 74.1 °F 55.9 °F 30 in Calm   5.4 mph 53% 0 in 480 W/m2
10:30 75.2 °F 55.9 °F 30 in Calm   5.4 mph 51% 0 in 492 W/m2
10:35 75.9 °F 55.9 °F 30 in Calm   5.4 mph 50% 0 in 83 W/m2
10:40 76.1 °F 56.1 °F 30 in Calm   4.5 mph 50% 0 in 81 W/m2
10:45 77 °F 56.5 °F 30 in Calm   4.5 mph 49% 0 in 82 W/m2
10:50 77.5 °F 56.3 °F 30 in Calm   2.2 mph 48% 0 in 76 W/m2
10:55 78.3 °F 55.8 °F 30 in Calm   3.1 mph 46% 0 in 562 W/m2
11:00 78.8 °F 55 °F 30 in Calm   3.1 mph 44% 0 in 585 W/m2
11:05 79.2 °F 55.9 °F 30 in Calm   1.6 mph 45% 0 in 602 W/m2
11:10 79.2 °F 55.9 °F 30 in Calm   3.1 mph 45% 0 in 614 W/m2
11:15 79 °F 55.2 °F 30 in Calm   3.1 mph 44% 0 in 618 W/m2
11:20 79.3 °F 56.1 °F 30 in Calm   5.4 mph 45% 0 in 613 W/m2
11:25 78.4 °F 55.9 °F 30 in Calm   5.4 mph 46% 0 in 647 W/m2
11:30 77.9 °F 56.1 °F 30 in Calm   2.2 mph 47% 0 in 647 W/m2
11:35 78.1 °F 55.8 °F 30 in Calm   3.1 mph 46% 0 in 674 W/m2
11:40 79.2 °F 55.9 °F 30 in Calm   3.1 mph 45% 0 in 700 W/m2
11:45 78.4 °F 55.9 °F 30 in East 3.1 mph 5.4 mph 46% 0 in 710 W/m2
11:50 78.1 °F 56.1 °F 30 in East 3.1 mph 5.4 mph 47% 0 in 720 W/m2
11:55 78.1 °F 56.8 °F 30 in Calm   5.4 mph 48% 0 in 731 W/m2
12:00 78.8 °F 56.3 °F 30 in Calm   4.5 mph 46% 0 in 750 W/m2
12:05 79 °F 57 °F 30 in Calm   3.1 mph 47% 0 in 768 W/m2
12:10 79.2 °F 56.7 °F 29.9 in Calm   3.1 mph 46% 0 in 791 W/m2
12:15 79 °F 56.5 °F 29.9 in NNW 0.7 mph 6 mph 46% 0 in 799 W/m2
12:20 79.5 °F 56.5 °F 29.9 in Calm   6 mph 45% 0 in 804 W/m2
12:25 80.2 °F 57 °F 29.9 in NE 4.5 mph 6 mph 45% 0 in 814 W/m2
12:30 80.8 °F 57.6 °F 29.9 in ENE 3.8 mph 6 mph 45% 0 in 827 W/m2
12:35 80.8 °F 57.6 °F 29.9 in ENE 3.8 mph 6.9 mph 45% 0 in 835 W/m2
12:40 80.8 °F 56.1 °F 29.9 in ENE 4.5 mph 8.3 mph 43% 0 in 853 W/m2
12:45 80.8 °F 57.6 °F 29.9 in East 4.5 mph 8.3 mph 45% 0 in 865 W/m2
12:50 80.2 °F 58.8 °F 29.9 in ESE 3.1 mph 11.4 mph 48% 0 in 867 W/m2
12:55 78.1 °F 56.8 °F 29.9 in SSE 4.5 mph 12.1 mph 48% 0 in 884 W/m2
13:00 78.4 °F 57.7 °F 29.9 in SE 2.2 mph 12.1 mph 49% 0 in 892 W/m2
13:05 79 °F 57 °F 29.9 in SE 6.9 mph 10.7 mph 47% 0 in 910 W/m2
13:10 78.1 °F 56.8 °F 29.9 in SSE 6 mph 10.7 mph 48% 0 in 908 W/m2
13:15 78.3 °F 58.1 °F 29.9 in South 3.8 mph 10.7 mph 50% 0 in 911 W/m2
13:20 78.1 °F 57.9 °F 29.9 in South 5.4 mph 11.4 mph 50% 0 in 912 W/m2
13:25 78.4 °F 58.3 °F 29.9 in South 4.5 mph 11.4 mph 50% 0 in 916 W/m2
13:30 78.4 °F 58.3 °F 29.9 in South 6.9 mph 9.8 mph 50% 0 in 914 W/m2
13:35 78.1 °F 57.9 °F 29.9 in South 3.8 mph 10.7 mph 50% 0 in 913 W/m2
13:40 79 °F 58.8 °F 29.9 in South 4.5 mph 10.7 mph 50% 0 in 913 W/m2
13:45 79.7 °F 58.3 °F 29.9 in South 3.1 mph 10.7 mph 48% 0 in 914 W/m2
13:50 79.3 °F 59.7 °F 29.9 in South 5.4 mph 11.4 mph 51% 0 in 910 W/m2
13:55 78.3 °F 61.3 °F 29.9 in South 3.8 mph 13.6 mph 56% 0 in 897 W/m2
14:00 77.7 °F 59.7 °F 29.9 in SSE 7.6 mph 13.6 mph 54% 0 in 894 W/m2
14:05 77.4 °F 60.1 °F 29.9 in SSE 5.4 mph 10.7 mph 55% 0 in 885 W/m2
14:10 77.5 °F 60.6 °F 29.9 in SSE 1.6 mph 10.7 mph 56% 0 in 878 W/m2
14:15 78.6 °F 60.1 °F 29.9 in SE 4.5 mph 9.2 mph 53% 0 in 875 W/m2
14:20 78.4 °F 60.4 °F 29.9 in SSE 3.1 mph 9.2 mph 54% 0 in 873 W/m2
14:25 78.1 °F 59.5 °F 29.9 in SE 3.1 mph 11.4 mph 53% 0 in 855 W/m2
14:30 78.3 °F 59.2 °F 29.9 in SE 7.6 mph 11.4 mph 52% 0 in 583 W/m2
14:35 77.9 °F 58.5 °F 29.9 in SSE 4.5 mph 10.7 mph 51% 0 in 772 W/m2
14:40 78.3 °F 58.1 °F 29.9 in SSE 1.6 mph 10.7 mph 50% 0 in 815 W/m2
14:45 79.5 °F 59.4 °F 29.9 in SE 3.8 mph 10.7 mph 50% 0 in 807 W/m2
14:50 80.6 °F 58.5 °F 29.9 in SE 4.5 mph 9.8 mph 47% 0 in 518 W/m2
14:55 80.4 °F 58.5 °F 29.9 in ESE 3.8 mph 9.8 mph 47% 0 in 472 W/m2
15:00 80.6 °F 57.9 °F 29.9 in SE 3.8 mph 9.8 mph 46% 0 in 752 W/m2
15:05 81 °F 58.3 °F 29.9 in SE 4.5 mph 8.3 mph 46% 0 in 696 W/m2
15:10 81.3 °F 57.4 °F 29.9 in SE 5.4 mph 8.3 mph 44% 0 in 740 W/m2
15:15 80.8 °F 57.6 °F 29.9 in SSE 4.5 mph 10.7 mph 45% 0 in 726 W/m2
15:20 81.7 °F 57.7 °F 29.9 in SSE 3.8 mph 10.7 mph 44% 0 in 707 W/m2
15:25 82.8 °F 59.4 °F 29.9 in SE 3.1 mph 8.3 mph 45% 0 in 629 W/m2
15:30 82.9 °F 58.8 °F 29.9 in SE 2.2 mph 6.9 mph 44% 0 in 545 W/m2
15:35 83.3 °F 59.2 °F 29.9 in SE 2.2 mph 6.9 mph 44% 0 in 533 W/m2
15:38 83.5 °F 58.6 °F 29.9 in SSE 3.1 mph 6.9 mph 43% 0 in 682 W/m2
15:43 84.4 °F 60.1 °F 29.9 in ESE 2.2 mph 6 mph 44% 0 in 664 W/m2
15:48 84.7 °F 58.5 °F 29.9 in ESE 3.1 mph 6.9 mph 41% 0 in 534 W/m2
15:53 83.1 °F 57.7 °F 29.9 in East 0.7 mph 7.6 mph 42% 0 in 626 W/m2
15:58 84.2 °F 58.6 °F 29.9 in ESE 1.6 mph 7.6 mph 42% 0 in 274 W/m2
16:03 84.6 °F 59.7 °F 29.9 in SE 1.6 mph 6 mph 43% 0 in 199 W/m2
16:08 83.8 °F 60.3 °F 29.9 in ESE 2.2 mph 6 mph 45% 0 in 567 W/m2
16:13 83.8 °F 59 °F 29.9 in ESE 3.1 mph 6 mph 43% 0 in 358 W/m2
16:18 83.8 °F 60.3 °F 29.9 in SE 2.2 mph 6 mph 45% 0 in 519 W/m2
16:23 84.4 °F 58.3 °F 29.9 in SSE 3.8 mph 6 mph 41% 0 in 367 W/m2
16:28 85.5 °F 58.5 °F 29.9 in Calm   6 mph 40% 0 in 464 W/m2
16:33 86.2 °F 58.5 °F 29.9 in ESE 2.2 mph 6 mph 39% 0 in 478 W/m2
16:38 85.8 °F 59.4 °F 29.9 in SE 3.8 mph 6 mph 41% 0 in 471 W/m2
16:43 85.6 °F 58.6 °F 29.9 in SE 3.8 mph 6 mph 40% 0 in 453 W/m2
16:48 86 °F 57.6 °F 29.9 in SE 1.6 mph 6 mph 38% 0 in 436 W/m2
16:53 86.4 °F 58.5 °F 29.9 in ESE 0.7 mph 6 mph 39% 0 in 422 W/m2
16:58 87.1 °F 57.7 °F 29.9 in ESE 3.1 mph 5.4 mph 37% 0 in 409 W/m2
17:03 86.5 °F 57.9 °F 29.9 in SE 3.1 mph 6 mph 38% 0 in 395 W/m2
17:08 86.9 °F 58.3 °F 29.9 in Calm   6 mph 38% 0 in 380 W/m2
17:13 86.9 °F 57.6 °F 29.9 in Calm   4.5 mph 37% 0 in 365 W/m2
17:18 86.7 °F 57.4 °F 29.9 in Calm   4.5 mph 37% 0 in 82 W/m2
17:23 82.9 °F 58.3 °F 29.9 in SE 2.2 mph 4.5 mph 43% 0 in 87 W/m2
17:28 80.8 °F 55.6 °F 29.9 in Calm   4.5 mph 42% 0 in 342 W/m2
17:33 83.5 °F 60.1 °F 29.9 in Calm   3.8 mph 45% 0 in 318 W/m2
17:38 86.5 °F 56.5 °F 29.9 in SE 0.7 mph 5.4 mph 36% 0 in 303 W/m2
17:43 86.5 °F 57.2 °F 29.9 in Calm   5.4 mph 37% 0 in 76 W/m2
17:48 84.6 °F 57.6 °F 29.9 in Calm   3.1 mph 40% 0 in 86 W/m2
17:53 83.3 °F 57.9 °F 29.9 in Calm   0.7 mph 42% 0 in 145 W/m2
17:58 83.8 °F 59 °F 29.9 in SSE 3.8 mph 4.5 mph 43% 0 in 87 W/m2
18:03 81.9 °F 57.2 °F 29.9 in South 2.2 mph 4.5 mph 43% 0 in 89 W/m2
18:08 80.6 °F 56.7 °F 29.9 in Calm   3.8 mph 44% 0 in 102 W/m2
18:13 82 °F 57.9 °F 29.9 in Calm   3.1 mph 44% 0 in 121 W/m2
18:18 83.3 °F 59.7 °F 29.9 in Calm     45% 0 in 90 W/m2
18:23 81.7 °F 56.5 °F 29.9 in South 2.2 mph 3.8 mph 42% 0 in 83 W/m2
18:28 81 °F 57 °F 29.9 in Calm   3.8 mph 44% 0 in 68 W/m2
18:33 80.1 °F 56.8 °F 29.9 in SSE 2.2 mph 3.8 mph 45% 0 in 53 W/m2
18:38 79.2 °F 56.7 °F 29.9 in SSE 1.6 mph 3.8 mph 46% 0 in 52 W/m2
18:43 78.3 °F 59.2 °F 29.9 in South 1.6 mph 3.8 mph 52% 0 in 60 W/m2
18:48 77.9 °F 59.4 °F 29.9 in SSE 0.7 mph 3.8 mph 53% 0 in 64 W/m2
18:53 77.4 °F 59.5 °F 29.9 in SE 1.6 mph 3.1 mph 54% 0 in 63 W/m2
18:58 77 °F 59.5 °F 29.9 in SSE 0.7 mph 3.8 mph 55% 0 in 57 W/m2
19:03 76.3 °F 62.2 °F 29.9 in Calm   5.4 mph 62% 0 in 43 W/m2
19:08 75.6 °F 62.1 °F 29.9 in Calm   5.4 mph 63% 0 in 37 W/m2
19:13 74.8 °F 62.2 °F 29.9 in Calm   4.5 mph 65% 0 in 36 W/m2
19:18 74.7 °F 62.6 °F 29.9 in Calm   3.8 mph 66% 0 in 37 W/m2
19:23 74.5 °F 62.4 °F 29.9 in Calm   0.7 mph 66% 0 in 35 W/m2
19:28 74.3 °F 61.9 °F 29.9 in Calm     65% 0 in 24 W/m2
19:33 74.3 °F 61.9 °F 29.9 in Calm     65% 0 in 17 W/m2
19:38 73.9 °F 61 °F 29.9 in Calm     64% 0 in 10 W/m2
19:43 73.8 °F 61.3 °F 29.9 in Calm     65% 0 in 5 W/m2
19:48 73.2 °F 60.8 °F 29.9 in Calm     65% 0 in 3 W/m2
19:53 72.7 °F 61.2 °F 29.9 in Calm     67% 0 in 1 W/m2
19:58 72.3 °F 61.5 °F 29.9 in Calm     69% 0 in 0 W/m2
20:03 72 °F 60.4 °F 29.9 in Calm     67% 0 in 0 W/m2
20:08 71.8 °F 59.7 °F 29.9 in Calm     66% 0 in 0 W/m2
20:13 72 °F 60.1 °F 29.9 in Calm     66% 0 in 0 W/m2
20:18 71.8 °F 60.6 °F 29.9 in Calm     68% 0 in 0 W/m2
20:23 71.6 °F 61.3 °F 29.9 in Calm     70% 0 in 0 W/m2
20:41 70.7 °F 61 °F 29.9 in NW 0.7 mph 4.5 mph 71% 0 in 0 W/m2
20:46 70.5 °F 61.2 °F 29.9 in Calm   4.5 mph 72% 0 in 0 W/m2
20:51 70.2 °F 60.3 °F 29.9 in Calm   4.5 mph 71% 0 in 0 W/m2
20:56 70.2 °F 59.9 °F 29.9 in Calm   2.2 mph 70% 0 in 0 W/m2
21:01 69.8 °F 60.1 °F 29.9 in Calm   2.2 mph 71% 0 in 0 W/m2
21:06 69.6 °F 59.7 °F 29.9 in NW 0.7 mph 3.1 mph 71% 0 in 0 W/m2
21:11 69.4 °F 59.7 °F 29.9 in Calm   3.1 mph 71% 0 in 0 W/m2
21:16 69.3 °F 59.2 °F 29.9 in Calm   1.6 mph 70% 0 in 0 W/m2
21:21 69.1 °F 58.8 °F 29.9 in Calm   1.6 mph 70% 0 in 0 W/m2
21:26 69.1 °F 58.8 °F 30 in Calm   1.6 mph 70% 0 in 0 W/m2
21:31 69.1 °F 58.5 °F 30 in Calm   1.6 mph 69% 0 in 0 W/m2
21:36 69.1 °F 58.8 °F 30 in Calm   1.6 mph 70% 0 in 0 W/m2
21:41 68.9 °F 58.6 °F 29.9 in Calm   1.6 mph 70% 0 in 0 W/m2
21:46 68.9 °F 59.2 °F 30 in Calm   1.6 mph 71% 0 in 0 W/m2
21:51 68.5 °F 58.8 °F 30 in Calm   2.2 mph 71% 0 in 0 W/m2
21:56 68.4 °F 59 °F 30 in Calm   2.2 mph 72% 0 in 0 W/m2
22:01 68 °F 59 °F 30 in NW 1.6 mph 3.8 mph 73% 0 in 0 W/m2
22:06 67.8 °F 59.5 °F 30 in NW 1.6 mph 3.8 mph 75% 0 in 0 W/m2
22:11 67.8 °F 59.5 °F 30 in Calm   3.8 mph 75% 0 in 0 W/m2
22:16 67.8 °F 59.4 °F 30 in Calm   3.8 mph 74% 0 in 0 W/m2
22:21 67.8 °F 59.4 °F 30 in SW 2.2 mph 3.8 mph 74% 0 in 0 W/m2
22:26 68.2 °F 57.9 °F 30 in Calm   3.8 mph 70% 0 in 0 W/m2
22:31 68.4 °F 57.7 °F 30 in Calm   3.8 mph 69% 0 in 0 W/m2
22:36 68.2 °F 57.6 °F 30 in Calm     69% 0 in 0 W/m2
22:41 68 °F 57.6 °F 30 in Calm     69% 0 in 0 W/m2
22:46 67.6 °F 57.9 °F 30 in Calm     71% 0 in 0 W/m2
22:51 67.3 °F 57.9 °F 30 in Calm     72% 0 in 0 W/m2
22:56 66.9 °F 57.9 °F 30 in Calm     73% 0 in 0 W/m2
23:01 66.9 °F 58.8 °F 30 in Calm     75% 0 in 0 W/m2
23:06 66.4 °F 58.6 °F 30 in Calm     76% 0 in 0 W/m2
23:11 65.7 °F 57.9 °F 30 in Calm     76% 0 in 0 W/m2
23:16 65.3 °F 57.9 °F 30 in Calm     77% 0 in 0 W/m2
23:21 65.1 °F 57.7 °F 30 in Calm     77% 0 in 0 W/m2
23:26 65.1 °F 58.1 °F 30 in Calm     78% 0 in 0 W/m2
23:31 64.8 °F 58.1 °F 30 in NNW 0.7 mph 2.2 mph 79% 0 in 0 W/m2
23:36 64.4 °F 58.5 °F 30 in NNW 2.2 mph 4.5 mph 81% 0 in 0 W/m2
23:41 64.2 °F 58.6 °F 30 in Calm   4.5 mph 82% 0 in 0 W/m2
23:46 63.9 °F 58.6 °F 30 in Calm   4.5 mph 83% 0 in 0 W/m2
23:51 63.7 °F 58.5 °F 30 in Calm   3.1 mph 83% 0 in 0 W/m2
23:56 63.5 °F 58.6 °F 30 in Calm   3.1 mph 84% 0 in 0 W/m2
Northern Hawkes Bay. New Zealand Historic Data
Compliments of Weather Underground - 2 mb